Regional Weather Roundup
Issued by NWS

Home | Current Version | Previous Version | Text Only | Print | Product List | Glossary Off
Versions: 1 2 3 4 5 6 7 8 9 10 11 12 13 14 15 16 17 18 19 20 21 22 23 24 25 26 27 28 29 30 31 32 33 34 35 36 37 38 39 40 41 42 43 44 45 46 47 48 49 50

711
ASUS45 KTFX 221110
RWRMT
MONTANA REGIONAL WEATHER ROUNDUP
NATIONAL WEATHER SERVICE GREAT FALLS MT
500 AM MDT WED MAR 22 2017

NOTE: "FAIR" INDICATES FEW OR NO CLOUDS BELOW 12000 FEET WITH NO
SIGNIFICANT WEATHER AND/OR OBSTRUCTIONS TO VISIBILITY.

MTZ001>007-043-221200-
WEST OF THE DIVIDE

CITY           SKY/WX    TMP DP  RH WIND       PRES   REMARKS
KALISPELL      MOCLDY    37  36  96 W3        29.79F FOG
MISSOULA       CLOUDY    38  38 100 E3        29.85R
BUTTE          CLOUDY    37  33  85 CALM      29.84R
MULLAN PASS    CLOUDY    33  33 100 VRB6      29.80S WCI  28
ANACONDA         N/A     36  34  93 NE5       29.84F
DEER LODGE       N/A     36  36 100 CALM      29.86S
EUREKA           N/A     36  34  93 CALM      29.80F
HAMILTON         N/A     39  36  87 S7        29.84F
RONAN            N/A     41  38  89 CALM      29.87F
$$

MTZ008-052>055-221200-
SOUTHWEST MONTANA

CITY           SKY/WX    TMP DP  RH WIND       PRES   REMARKS
BOZEMAN        CLOUDY    37  35  92 S9        29.83F WCI  30
DILLON         CLOUDY    39  33  79 S6        29.84S
W YELLOWSTONE  CLOUDY    37  36  93 SW7G18    29.92S
ENNIS          CLOUDY    39  37  93 SE8       29.90S
THREE FORKS      N/A     37  11  34 CALM      29.86R
$$

MTZ009-010-012-014-046-048-049-054-221200-
EAST SLOPES AND CENTRAL MONTANA

CITY           SKY/WX    TMP DP  RH WIND       PRES   REMARKS
CUT BANK       CLOUDY    32  31  96 SE6       29.69R FOG     WCI  26
GREAT FALLS    CLOUDY    46  33  60 S13       29.71F
HELENA         PTCLDY    36  32  85 W5        29.82R
AUGUSTA          N/A     36  35  96 CALM      29.72R
BOWMANS CRNR     N/A     40  33  76 S12G17    29.73S
CHOTEAU          N/A     36  36 100 CALM      29.72S
CONRAD           N/A     33  33 100 CALM      29.74F
FAIRFIELD      MOCLDY    39  35  83 SW6       29.69F
POWER          MOCLDY    38  32  77 S6        29.70F
RAYNESFORD     MOCLDY    47  38  71 W10       29.72F
$$

MTZ011-013-016-021-045-047-050-051-221200-
NORTH CENTRAL MONTANA

CITY           SKY/WX    TMP DP  RH WIND       PRES   REMARKS
HAVRE          CLOUDY    31  30  96 N3        29.73F
LEWISTOWN      CLOUDY    33  30  88 SE5       29.75F
N BAR RANCH    CLOUDY    45  36  70 CALM      29.76F
CHINOOK          N/A     36  34  93 E9        29.74F WCI  29
DENTON         CLOUDY    36  33  88 S6        29.70F WCI  31
FORT BENTON      N/A     37  34  87 MISG      29.72F
GEYSER         MOCLDY    35  31  87 CALM      29.72F
GRASS RANGE    CLOUDY    34  34 100 SE5       29.71S
STANFORD       MOCLDY    40  34  77 S9        29.72F
WINIFRED       LGT RAIN  34 N/A N/A CALM      29.74F VSB 3/8
$$

MTZ017>020-022>027-061-062-221200-
NORTHEAST MONTANA

CITY           SKY/WX    TMP DP  RH WIND       PRES   REMARKS
GLASGOW        CLOUDY    32  27  81 SE16      29.84F WCI  21
JORDAN           N/A     33  30  88 SE9       29.81F WCI  25
SIDNEY         CLOUDY   N/A N/A N/A S14       29.99F
WOLF POINT     CLOUDY    35  26  69 SE12      29.91F WCI  27
MALTA          CLOUDY    34  32  93 SE8       29.80F WCI  27
PLENTYWOOD       N/A     27  19  74 SE21G26   29.95F WCI  13
POPLAR           N/A     32  25  74 SE12      29.94F WCI  23
$$

MTZ028>42-056>058-221200-
SOUTHCENTRAL AND SOUTHEAST MONTANA

CITY           SKY/WX    TMP DP  RH WIND       PRES   REMARKS
BAKER          CLOUDY    29  25  85 SE32G40   29.92F WCI  13
BILLINGS       FOG       36  36 100 SE6       29.79F VSB 1/4 WCI  31
LIVINGSTON     MIX PCPN  35  32  88 SW6       29.86R WCI  30
MILES CITY     CLOUDY    34  28  79 SE15      29.86F WCI  24
BIG TIMBER     MOCLDY    36  34  93 SW24G30   29.82F WCI  24
FORSYTH          N/A     32  32 100 E8        29.82F WCI  25
HARLOWTON      LGT RAIN  34  32  94 CALM      29.82R
LAUREL           N/A     37  34  89 CALM      29.80F VSB 0
$$

REGIONAL REPORTS...DAKOTAS

CITY           SKY/WX    TMP DP  RH WIND       PRES   REMARKS
WILLISTON      CLOUDY    29  21  72 SE13G18   30.01F WCI  19
MINOT          CLOUDY    23  17  78 SE17      30.18F WCI   9
DICKINSON      CLOUDY    25  18  74 SE28G37   30.00F WCI   9
BEACH            N/A    N/A N/A N/A MISG        N/A
TIOGA          CLOUDY    25  23  93 SE25      30.06F WCI   9
WATFORD CITY   CLOUDY    28  21  74 SE14G22   30.03F WCI  17
BISMARCK       CLOUDY    25  17  72 SE20      30.24F WCI  11
GRAND FORKS    CLOUDY    19   9  65 SE9       30.47F WCI   8
FARGO          CLOUDY    20   7  57 SE9       30.47F WCI   9
BUFFALO SD       N/A     29  26  89 SE25G35   29.88F WCI  14
RAPID CITY     CLOUDY    31  30  96 S18       30.00F WCI  19
$$

REGIONAL REPORTS...WYOMING/IDAHO/WASHINGTON

CITY           SKY/WX    TMP DP  RH WIND       PRES   REMARKS
GILLETTE       CLEAR     33  30  88 S23G31    29.85F WCI  21
SHERIDAN       FOG       35  33  92 VRB5      29.79F VSB 1/4
BUFFALO WY     CLOUDY    37  33  85 SE9       29.79F WCI  30
CODY           CLOUDY    36  33  89 CALM      29.82F
YELLOWSTONE LA   N/A     32  32 100 CALM      29.97S
IDAHO FALLS    MOCLDY    42  40  92 SW10      29.93R
SALMON         CLEAR     36  30  80 E3        29.86S
BOISE          MOCLDY    45  38  76 SE12      29.90S
SPOKANE        MOCLDY    41  39  93 S6        29.82R
$$

REGIONAL REPORTS...ALBERTA

CITY           SKY/WX    TMP DP  RH WIND       PRES   REMARKS
EDMONTON       PTCLDY    28  21  74 E9        29.65F WCI  20
CALGARY        MOCLDY    36  27  69 SW9       29.55F WCI  29
LETHBRIDGE     LGT RAIN  39  36  87 SW9       29.61F
MEDICINE HAT   LGT RAIN  36  32  87 VRB2      29.67S
WATERTON GATE    N/A     41  34  75 SW16G28     N/A
CARDSTON         N/A     43  32  65 W7G18       N/A
MILK RIVER       N/A     34  32  93 S9          N/A  WCI  26
$$

REGIONAL REPORTS...SASKATCHEWAN

CITY           SKY/WX    TMP DP  RH WIND       PRES   REMARKS
SWIFT CURRENT  CLOUDY    32  28  86 S16G26    29.75F WCI  21
REGINA         PTCLDY    19  16  86 SE23G30   29.99F WCI   2
SASKATOON      CLOUDY    25  18  74 SE15G22   29.93F WCI  12
CYPRESS HILLS    N/A     28  27  93 SE13G20     N/A  WCI  18
VAL MARIE        N/A     34  28  80 S18G24      N/A  WCI  23
ROCKGLEN         N/A     28  23  80 S21G30      N/A  WCI  15
ASSINIBOIA       N/A     30  25  80 SE9         N/A  WCI  22
$$




USA.gov is the U.S. government's official web portal to all federal, state and local government web resources and services.